Hourly Weather Otocec

Today, 23 July, Friday

Time Temperature Precipitation Wind Pressure Humidity
00:00 +16°C° 0 mm 0 mps 732 mmHg 80%
01:00 +15°C° 0 mm 0 mps 732 mmHg 81%
02:00 +15°C° 0 mm 0 mps 731 mmHg 83%
03:00 +15°C° 0 mm 0 mps 731 mmHg 84%
04:00 +14°C° 0 mm 0 mps 731 mmHg 85%
05:00 +16°C° 0 mm 0 mps 731 mmHg 79%
06:00 +17°C° 0 mm 0 mps 731 mmHg 74%
07:00 +19°C° 0 mm 0 mps 731 mmHg 69%
08:00 +21°C° 0 mm 0 mps 732 mmHg 61%
09:00 +25°C° 0 mm 1 mps 732 mmHg 54%
10:00 +27°C° 0 mm 1 mps 732 mmHg 46%
11:00 +27°C° 0 mm 1 mps 731 mmHg 43%
12:00 +28°C° 0 mm 2 mps 731 mmHg 40%
13:00 +29°C° 0 mm 2 mps 731 mmHg 38%
14:00 +29°C° 0 mm 1 mps 730 mmHg 39%
15:00 +29°C° 0 mm 1 mps 730 mmHg 40%
16:00 +29°C° 0 mm 1 mps 730 mmHg 41%
17:00 +27°C° 0 mm 1 mps 730 mmHg 51%
18:00 +25°C° 0 mm 1 mps 730 mmHg 61%
19:00 +23°C° 0 mm 1 mps 730 mmHg 70%
20:00 +22°C° 0 mm 1 mps 730 mmHg 74%
21:00 +20°C° 0 mm 1 mps 730 mmHg 77%
22:00 +17°C° 0 mm 0 mps 730 mmHg 80%
23:00 +17°C° 0 mm 0 mps 730 mmHg 82%

Tomorrow, 24 July, Saturday

Time Temperature Precipitation Wind Pressure Humidity
00:00 +16°C° 0 mm 0 mps 730 mmHg 83%
01:00 +16°C° 0 mm 0 mps 730 mmHg 85%
02:00 +15°C° 0 mm 0 mps 730 mmHg 86%
03:00 +15°C° 0 mm 0 mps 730 mmHg 87%
04:00 +15°C° 0 mm 0 mps 729 mmHg 88%
05:00 +16°C° 0 mm 0 mps 729 mmHg 82%
06:00 +18°C° 0 mm 0 mps 730 mmHg 75%
07:00 +20°C° 0 mm 0 mps 730 mmHg 69%
08:00 +22°C° 0 mm 0 mps 730 mmHg 62%
09:00 +26°C° 0 mm 1 mps 730 mmHg 54%
10:00 +28°C° 0 mm 1 mps 730 mmHg 46%
11:00 +29°C° 0 mm 1 mps 729 mmHg 43%
12:00 +31°C° 0 mm 1 mps 729 mmHg 40%
13:00 +32°C° 0 mm 1 mps 729 mmHg 37%
14:00 +32°C° 0 mm 2 mps 729 mmHg 38%
15:00 +32°C° 0 mm 2 mps 728 mmHg 39%
16:00 +32°C° 0 mm 2 mps 728 mmHg 40%
17:00 +30°C° 0 mm 2 mps 728 mmHg 50%
18:00 +28°C° 0 mm 1 mps 727 mmHg 59%
19:00 +24°C° 0 mm 0 mps 727 mmHg 69%
20:00 +25°C° 0 mm 1 mps 727 mmHg 71%
21:00 +23°C° 0 mm 1 mps 727 mmHg 73%
22:00 +22°C° 0 mm 1 mps 727 mmHg 76%
23:00 +22°C° 0 mm 1 mps 727 mmHg 77%

Day after tomorrow, 25 July, Sunday

Time Temperature Precipitation Wind Pressure Humidity
00:00 +21°C° 0 mm 1 mps 727 mmHg 78%
01:00 +21°C° 0 mm 1 mps 727 mmHg 79%
02:00 +20°C° 0 mm 1 mps 727 mmHg 80%
03:00 +20°C° 0 mm 1 mps 727 mmHg 81%
04:00 +19°C° 0 mm 1 mps 727 mmHg 82%
05:00 +21°C° 0 mm 1 mps 727 mmHg 77%
06:00 +22°C° 0 mm 1 mps 727 mmHg 72%
07:00 +22°C° 0 mm 0 mps 728 mmHg 67%
08:00 +26°C° 0 mm 1 mps 728 mmHg 58%
09:00 +28°C° 0 mm 1 mps 728 mmHg 50%
10:00 +30°C° 0 mm 2 mps 728 mmHg 41%
11:00 +31°C° 0 mm 3 mps 728 mmHg 38%
12:00 +33°C° 0 mm 3 mps 728 mmHg 34%
13:00 +34°C° 0 mm 4 mps 727 mmHg 30%
14:00 +34°C° 0 mm 4 mps 727 mmHg 31%
15:00 +34°C° 0 mm 4 mps 727 mmHg 32%
16:00 +34°C° 0 mm 4 mps 727 mmHg 33%
17:00 +30°C° 0 mm 3 mps 727 mmHg 43%
18:00 +28°C° 0 mm 2 mps 727 mmHg 54%
19:00 +25°C° 0 mm 1 mps 727 mmHg 65%
20:00 +24°C° 0 mm 1 mps 727 mmHg 65%
21:00 +24°C° 0 mm 1 mps 727 mmHg 66%
22:00 +23°C° 0 mm 1 mps 728 mmHg 67%
23:00 +22°C° 0 mm 1 mps 727 mmHg 71%

26 July, Monday

Time Temperature Precipitation Wind Pressure Humidity
00:00 +21°C° 0 mm 1 mps 727 mmHg 75%
01:00 +21°C° 0 mm 1 mps 727 mmHg 79%
02:00 +20°C° 0.1 mm 1 mps 727 mmHg 83%
03:00 +20°C° 0.1 mm 1 mps 728 mmHg 87%
04:00 +19°C° 0.1 mm 1 mps 728 mmHg 90%
05:00 +20°C° 0.2 mm 1 mps 728 mmHg 91%
06:00 +21°C° 0.2 mm 1 mps 728 mmHg 91%
07:00 +19°C° 0.2 mm 0 mps 729 mmHg 91%
08:00 +24°C° 0 mm 1 mps 729 mmHg 76%
09:00 +27°C° 0 mm 1 mps 729 mmHg 62%
10:00 +29°C° 0 mm 2 mps 729 mmHg 48%
11:00 +31°C° 0 mm 2 mps 729 mmHg 43%
12:00 +33°C° 0 mm 3 mps 729 mmHg 39%
13:00 +34°C° 0 mm 3 mps 729 mmHg 34%
14:00 +34°C° 0 mm 3 mps 728 mmHg 35%
15:00 +34°C° 0 mm 3 mps 728 mmHg 35%
16:00 +34°C° 0 mm 3 mps 728 mmHg 35%
17:00 +31°C° 0 mm 2 mps 728 mmHg 44%
18:00 +28°C° 0 mm 1 mps 728 mmHg 53%
19:00 +26°C° 0 mm 1 mps 728 mmHg 63%
20:00 +25°C° 0 mm 1 mps 728 mmHg 63%
21:00 +24°C° 0 mm 1 mps 728 mmHg 64%
22:00 +23°C° 0 mm 1 mps 728 mmHg 65%
23:00 +22°C° 0 mm 1 mps 729 mmHg 68%

27 July, Tuesday

Time Temperature Precipitation Wind Pressure Humidity
00:00 +22°C° 0 mm 1 mps 729 mmHg 70%
01:00 +21°C° 0 mm 1 mps 729 mmHg 73%
02:00 +21°C° 0 mm 1 mps 729 mmHg 76%
03:00 +20°C° 0 mm 1 mps 729 mmHg 79%
04:00 +20°C° 0 mm 1 mps 729 mmHg 82%
05:00 +21°C° 0 mm 1 mps 730 mmHg 79%
06:00 +22°C° 0 mm 1 mps 730 mmHg 75%
07:00 +21°C° 0 mm 0 mps 730 mmHg 72%
08:00 +23°C° 0 mm 0 mps 731 mmHg 66%
09:00 +26°C° 0 mm 0 mps 731 mmHg 59%
10:00 +28°C° 0 mm 0 mps 731 mmHg 52%
11:00 +31°C° 0 mm 1 mps 731 mmHg 47%
12:00 +34°C° 0 mm 2 mps 731 mmHg 41%
13:00 +35°C° 0 mm 3 mps 730 mmHg 36%
14:00 +35°C° 0 mm 3 mps 730 mmHg 36%
15:00 +34°C° 0 mm 4 mps 730 mmHg 36%
16:00 +34°C° 0 mm 4 mps 730 mmHg 36%
17:00 +31°C° 0 mm 3 mps 730 mmHg 46%
18:00 +29°C° 0 mm 3 mps 730 mmHg 55%
19:00 +26°C° 0 mm 2 mps 730 mmHg 65%
20:00 +25°C° 0 mm 2 mps 730 mmHg 69%
21:00 +24°C° 0 mm 2 mps 730 mmHg 72%
22:00 +22°C° 0 mm 1 mps 730 mmHg 76%
23:00 +22°C° 0 mm 1 mps 730 mmHg 77%

28 July, Wednesday

Time Temperature Precipitation Wind Pressure Humidity
00:00 +22°C° 0 mm 1 mps 730 mmHg 77%
01:00 +21°C° 0 mm 1 mps 730 mmHg 78%
02:00 +21°C° 0 mm 1 mps 730 mmHg 78%
03:00 +21°C° 0 mm 1 mps 730 mmHg 78%
04:00 +20°C° 0 mm 1 mps 730 mmHg 78%
05:00 +21°C° 0.1 mm 1 mps 730 mmHg 78%
06:00 +22°C° 0.1 mm 1 mps 731 mmHg 77%
07:00 +22°C° 0.1 mm 1 mps 732 mmHg 76%
08:00 +24°C° 0 mm 1 mps 732 mmHg 69%
09:00 +26°C° 0 mm 1 mps 732 mmHg 63%
10:00 +28°C° 0 mm 2 mps 732 mmHg 57%
11:00 +29°C° 0 mm 1 mps 732 mmHg 52%
12:00 +31°C° 0 mm 1 mps 732 mmHg 47%
13:00 +32°C° 0 mm 1 mps 731 mmHg 43%
14:00 +33°C° 0 mm 1 mps 731 mmHg 41%
15:00 +34°C° 0 mm 2 mps 731 mmHg 39%
16:00 +35°C° 0 mm 2 mps 730 mmHg 37%
17:00 +32°C° 0 mm 1 mps 730 mmHg 47%
18:00 +29°C° 0 mm 1 mps 730 mmHg 56%
19:00 +27°C° 0 mm 1 mps 730 mmHg 66%
20:00 +26°C° 0 mm 1 mps 730 mmHg 68%
21:00 +23°C° 0 mm 0 mps 730 mmHg 69%
22:00 +22°C° 0 mm 0 mps 730 mmHg 71%
23:00 +21°C° 0 mm 0 mps 730 mmHg 72%
Show more